S4 CROSSOVER/ASTRA

导读

S4 CROSSOVER/ASTRA是美国于2022年3月15日发射的卫星,由阿斯特拉公司执行发射任务。作为美国航天领域小型运载火箭发射尝试的一部分,该卫星旨在完成相关航天测试任务,此次发射是阿斯特拉公司轨道发射活动的组成部分,承担着验证小型火箭发射技术与航天载荷入轨能力的试验任务,推动美国商业航天小型发射技术的发展与验证。

Basic Information
目录编号:
52008
目录名称:
S4 CROSSOVER/ASTRA
国际标识:
2022-026A
轨道中心:
EARTH
卫星名称:
S4 CROSSOVER/ASTRA
卫星全名:
--
卫星状态:
已陨落 最后检测时间 2024-01-02
发射日期:
2022-03-15 UTC
国别 :
美国 (US)
星等 :
--
Orbit Information
数据来源 国际轨道数据
星历时间: 2024-01-02T13:30:52+0800
轨道信息已过期924天
半长轴: 6497.853km
偏心率: 0.0011476
轨道倾角: 97.439°
近地点辐角 28.746°
升交点赤经 24.386°
平近点角 54.325°
近地点: 112.261km
远地点: 127.175km
周期: 86.879分钟
每日圈数: 16.574787
Detailed Information
使用方式:
暂无